AirNav   Everest Fuels
 
 446 users online  

83PA MMC Heliport
Jeannette, Pennsylvania, USA

GOING TO JEANNETTE?


FAA INFORMATION EFFECTIVE 16 JULY 2020

Location

FAA Identifier: 83PA
Lat/Long: 40-18-40.2490N 079-36-37.1500W
40-18.670817N 079-36.619167W
40.3111803,-79.6103194
(estimated)
Elevation: 1348 ft. / 411 m (estimated)
Variation: 09W (2000)
Time zone: UTC -4 (UTC -5 during Standard Time)
Zip code: 15644

Heliport Operations

Heliport use: Private use, MEDICAL USE.
Activation date: 03/1990
Control tower: no
ARTCC: CLEVELAND CENTER
FSS: ALTOONA FLIGHT SERVICE STATION
NOTAMs facility: FDC (NOTAM-D service not available)
Attendance: MON-FRI 0900-1700
Wind indicator: yes
Segmented circle: no
Lights: FOR PERIMETER LGTS CALL 412-527-1511.

Heliport Communications

WX AWOS-3 at LBE (9 nm E): 118.375 (724-539-0671)
WX AWOS-3 at FWQ (12 nm SW): 118.475 (724-379-5815)
WX ASOS at AGC (15 nm W): 120.55 (412-466-8968)
WX AWOS-A at 42PN (20 nm NW): PHONE 412-442-2213

Nearby radio navigation aids

VOR radial/distance  VOR name  Freq  Var
AGCr093/19.8ALLEGHENY VOR/DME110.0009W
IHDr336/23.3INDIAN HEAD VORTAC108.2006W
JSTr275/35.5JOHNSTOWN VOR/DME113.0006W

 
NDB name  Hdg/Dist  Freq  Var  ID
STOYSTOWN303/34.620910WSYS ... -.-- ...

Heliport Services

Runway Information

Helipad H1

Dimensions: 60 x 60 ft. / 18 x 18 m
Surface: concrete, in fair condition
Runway edge lights: PERI
Latitude: 40-18.670817N
Longitude: 079-36.619167W
Elevation: 1348.0 ft.
Traffic pattern: leftleft
Markings: basic, in fair condition

Heliport Ownership and Management from official FAA records

Ownership: Privately-owned
Owner: MONSOUR MEDICAL CENTER
70 LINCOLN WAY EAST
JEANNETTE, PA 15644
Phone 412-527-1511
Manager: CARL R. PRZYWARTY
429 MT THOR RD
GREENSBURG, PA 15601
Phone 412-834-4517

Additional Remarks

A52-H1 LGTD POWER POLE 45 FT S LGTD; LGTD POWER POLE 100 FT SE & MKD PLINES.
FOR CD CTC JOHNSTOWN APCH AT 814-532-5960, WHEN APCH CLSD CTC CLEVELAND ARTCC AT 440-774-0234.

Instrument Procedures

There are no published instrument procedures at 83PA.

Some nearby airports with instrument procedures:

KLBE - Arnold Palmer Regional Airport (9 nm E)
KFWQ - Rostraver Airport (12 nm SW)
KAGC - Allegheny County Airport (15 nm W)
G05 - Finleyville Airpark (19 nm W)
KVVS - Joseph A Hardy Connellsville Airport (21 nm S)
 
Loc | Ops | Rwys | IFR | FBO | Links
Com | Nav | Svcs | Stats | Notes
Area around 83PA (MMC Heliport)
 
Road maps at: MapQuest Bing Google
 
Aerial photo
No photo
 
Sectional chart

 
Airport distance calculator
Flying to MMC Heliport? Find the distance to fly.

From to 83PA

Sunrise and sunset
Times for 13-Aug-2020
 Local
(UTC-4)
 Zulu
(UTC)
Morning civil twilight06:0010:00
Sunrise06:2910:29
Sunset20:1700:17
Evening civil twilight20:4600:46

Current date and time
Zulu (UTC)  13-Aug-2020 06:35:04
Local (UTC-4)  13-Aug-2020 02:35:04
 
METAR
KLBE 
10nm E 
130615Z AUTO 00000KT 10SM CLR 22/20 A3007 RMK AO2
KP53 
12nm SW 
130556Z AUTO 00000KT 20/17 A3011 RMK AO1 SLP195 T02000167 10217 20200 53004
KAGC 
14nm W 
130553Z 00000KT 10SM CLR 23/15 A3007 RMK AO2 SLP174 T02330150 10272 20233 58005
TAF
KLBE 
10nm E 
130520Z 1306/1406 04003KT P6SM BKN250 FM131800 08005KT P6SM VCTS BKN030CB FM140000 10003KT P6SM SCT150
KAGC 
14nm W 
130520Z 1306/1406 03004KT P6SM BKN250 FM131800 08005KT P6SM SCT090
NOTAMs
Click for the latest NOTAMs
NOTAMs are issued by the DoD/FAA and will open in a separate window not controlled by AirNav.

 

 
 

Would you like to see your business listed on this page?

 If your business provides an interesting product or service to pilots, flight crews, aircraft, or users of the MMC Heliport, you should consider listing it here.  To start the listing process, click on the button below
 
Add a business
 

Other Pages about MMC Heliport

Update a link
 
Copyright © AirNav, LLC. All rights reserved. Privacy Policy  Contact